Theta_e
315 314 314 314 313 313 312 311 311 311 310 311 312 313 314 313 314 314 313 312 311 311 310 309 308 308 308 308 308 308 308 309 311 311 312 313 313 314 314 314 315 316
317 315 315 314 313 313 312 311 311 311 310 311 312 312 313 313 313 313 312 312 312 312 311 310 308 309 310 310 309 308 308 308 309 309 310 310 311 312 312 312 313 314
317 316 315 314 314 312 312 313 313 312 311 312 312 312 312 312 312 312 312 312 312 312 311 309 309 309 309 309 308 308 308 308 308 308 308 309 309 309 310 310 310 311
317 316 315 314 314 313 312 313 313 312 312 312 312 311 312 312 312 312 312 312 313 312 310 309 310 309 308 307 306 306 307 307 308 308 307 308 308 308 308 308 308 309
316 316 315 314 315 314 313 313 313 312 312 312 312 312 312 312 312 312 312 312 312 310 309 309 310 309 307 306 305 304 305 305 306 306 306 306 306 306 307 307 307 307
316 315 315 315 315 314 313 313 312 312 312 312 312 312 312 311 312 312 312 311 310 309 309 309 308 308 306 306 305 305 305 305 305 305 305 305 305 305 305 305 305 305
317 316 316 316 316 315 313 312 312 312 312 311 310 310 310 311 312 311 309 308 309 309 309 308 308 307 306 305 305 305 305 305 305 305 305 305 305 304 304 304 304 304
318 317 316 316 316 314 313 312 312 312 312 310 308 308 309 310 310 308 307 307 308 308 308 307 307 306 305 305 305 305 305 305 305 305 305 305 305 304 304 303 304 304
318 318 316 316 315 314 313 312 312 312 311 310 308 308 309 309 308 307 307 308 308 308 307 306 306 305 305 305 304 304 304 304 304 304 304 304 304 304 304 304 304 304
318 318 316 315 314 313 312 312 312 312 311 309 308 308 308 308 307 307 308 308 308 307 306 306 305 304 304 303 303 303 303 303 303 303 303 303 303 303 303 304 304 304
319 318 316 315 314 313 312 311 312 311 310 308 308 308 308 308 308 308 308 308 307 306 305 305 304 304 303 303 303 303 302 302 302 302 302 302 302 303 303 303 303 303
318 317 316 315 314 313 312 311 311 310 309 308 308 309 309 309 309 308 308 307 306 305 305 304 303 303 303 303 302 302 302 302 302 302 302 302 302 302 302 302 303 303
318 318 317 316 314 313 312 311 311 310 309 309 309 310 309 309 308 308 307 306 305 304 303 303 303 302 302 302 301 301 301 301 301 301 301 302 302 302 302 302 303 302
318 317 317 316 315 313 312 312 311 310 310 310 310 310 309 309 308 307 306 305 304 303 303 302 302 302 301 301 301 300 300 300 300 300 300 300 301 301 301 302 302 302
317 317 316 315 314 313 312 312 311 311 310 310 310 310 309 308 307 306 305 304 303 302 302 302 301 301 301 301 300 299 299 298 298 298 298 298 299 299 299 300 300 300
316 316 316 315 314 313 312 312 311 311 310 310 310 309 308 307 306 305 303 302 302 302 302 301 301 300 300 299 299 298 298 298 298 298 298 298 298 298 298 298 298 299
316 316 316 315 314 313 312 312 311 310 310 309 309 308 307 306 305 304 303 302 302 301 301 300 300 299 299 298 298 298 298 298 298 298 298 298 298 298 297 298 298 298
316 316 315 314 314 313 312 311 311 310 310 309 308 307 307 306 304 303 302 302 301 300 299 299 299 298 298 298 298 298 298 298 298 298 298 297 298 297 297 297 297 297
316 315 314 314 314 313 312 311 310 310 309 308 308 307 306 305 303 302 301 300 299 298 298 298 297 297 297 297 297 297 297 297 297 297 297 297 297 297 297 297 297 296
315 315 314 314 313 312 311 310 309 309 308 308 307 306 305 304 302 301 299 298 298 297 297 296 296 296 296 296 296 296 296 297 297 297 297 297 297 296 296 296 296 296
314 314 314 313 312 311 310 309 308 308 308 308 306 305 304 302 301 299 298 297 297 296 295 294 294 294 294 294 294 295 295 295 296 296 296 296 296 296 296 296 295 295
313 314 314 312 311 310 309 308 308 308 308 307 305 304 302 301 300 299 297 296 295 294 293 293 293 293 293 293 293 293 294 294 294 294 295 295 295 295 295 295 295 295
313 313 312 311 310 309 308 308 308 308 307 306 304 303 301 300 299 298 297 296 294 293 292 292 292 292 292 293 293 293 293 293 293 293 294 294 294 294 294 294 295 294
313 312 311 310 308 308 307 308 308 307 306 305 303 302 301 299 298 297 296 295 293 292 292 292 292 292 292 292 292 292 292 292 292 293 293 293 293 294 294 294 294 294
311 311 310 308 307 307 307 307 307 306 305 304 302 302 300 299 298 297 295 293 293 292 291 291 292 292 292 292 292 292 292 292 292 292 292 292 293 293 293 293 293 293
310 310 309 307 307 307 307 306 305 303 303 302 301 300 299 299 298 297 295 293 293 291 290 290 291 291 291 292 291 291 291 291 291 291 291 292 292 292 292 292 292 292
Wind_Speed
28 26 25 25 23 21 21 22 20 17 16 15 15 14 12 11 10 10 8 7 7 7 7 8 10 9 9 9 11 13 13 13 13 13 14 15 14 14 14 13 13 14
29 27 25 25 24 23 23 22 21 19 17 17 16 14 13 13 11 10 9 9 9 8 7 8 8 8 7 8 10 12 14 15 14 14 15 15 15 16 16 16 15 15
29 27 26 25 25 24 23 22 22 20 18 18 18 16 14 14 12 11 10 10 9 8 7 8 7 7 7 8 10 13 14 15 16 16 16 15 15 15 16 17 17 17
30 29 27 26 26 24 22 22 23 21 20 20 20 17 16 14 13 12 11 10 9 8 8 8 7 7 8 10 12 14 15 16 16 17 18 17 16 16 16 17 19 19
32 30 28 27 25 24 22 23 23 22 21 21 20 18 16 15 13 12 11 10 9 8 8 8 8 8 9 11 12 13 14 14 16 17 18 19 18 18 18 18 20 21
33 30 29 27 26 24 24 24 24 23 22 21 19 18 16 15 14 13 11 10 9 8 8 8 9 10 10 11 11 12 12 12 13 14 16 18 19 20 20 21 21 22
34 32 30 28 26 25 25 24 24 23 22 20 18 16 15 14 13 12 10 9 9 9 9 9 10 9 9 10 11 11 11 12 12 12 14 16 18 20 20 21 21 22
34 32 30 28 27 26 25 24 24 23 21 19 17 15 14 13 13 11 9 9 10 10 10 9 8 8 9 10 10 10 10 10 10 12 13 15 17 18 20 20 20 22
34 32 30 29 27 26 26 25 24 22 20 18 16 14 14 13 11 9 9 9 10 9 8 7 7 8 9 9 10 11 11 12 13 14 15 16 17 18 19 19 20 22
33 32 31 30 28 27 26 24 23 21 19 17 15 14 13 11 10 9 9 10 9 8 7 7 7 8 9 10 12 14 15 16 17 17 17 18 20 20 19 19 20 21
33 32 31 31 30 28 26 24 22 20 17 15 14 13 12 10 10 10 10 9 8 7 7 6 7 9 10 12 14 15 16 17 17 18 19 19 19 19 19 19 20 21
33 32 32 31 29 27 25 23 21 18 16 14 13 12 11 10 10 9 9 8 7 7 7 7 8 9 11 13 14 15 15 16 17 18 19 19 19 19 19 20 20 21
32 32 31 30 28 26 24 21 19 17 14 13 12 11 11 10 9 9 8 8 7 7 8 9 9 11 13 15 16 17 17 17 17 18 19 18 19 19 19 20 20 21
29 29 29 28 27 24 22 20 18 15 13 12 12 11 11 10 9 9 8 8 9 10 10 10 11 13 15 17 19 20 20 20 20 20 21 20 20 20 20 20 21 21
24 25 26 25 24 23 21 19 16 14 13 12 12 11 10 10 9 9 9 10 11 11 10 10 12 14 17 19 21 21 21 22 22 23 24 24 23 22 22 23 23 23
23 23 24 24 24 22 20 18 15 13 12 12 12 11 10 10 9 9 11 12 11 11 11 11 13 16 18 20 21 21 22 23 24 25 25 25 26 25 25 25 25 25
24 24 24 24 24 22 20 17 14 12 12 12 11 11 10 9 9 10 11 11 10 9 11 13 15 17 19 20 21 22 23 24 24 25 26 27 27 27 27 27 27 26
29 27 27 26 24 22 19 16 14 13 12 12 12 11 9 9 9 9 8 7 7 9 12 15 16 18 19 21 22 22 23 23 24 25 26 27 28 27 28 28 28 28
32 31 30 28 25 22 18 15 14 12 12 12 11 9 8 8 7 5 4 6 10 13 15 16 18 19 20 21 22 23 23 24 24 25 27 28 28 28 29 29 29 29
35 36 33 29 25 21 17 15 13 12 11 11 9 7 7 6 3 3 6 9 12 14 15 17 19 21 22 23 23 24 25 25 26 27 28 29 30 29 29 30 30 30
39 39 35 30 26 21 17 14 12 12 11 10 8 7 6 4 4 6 8 10 13 15 18 20 23 24 25 25 25 25 26 27 28 29 30 31 30 30 30 30 30 29
39 38 34 30 25 20 17 15 13 12 11 10 8 6 5 5 6 6 8 11 14 16 20 23 25 27 27 27 27 27 27 28 30 30 31 30 30 30 30 30 29 28
34 34 31 27 23 19 17 15 13 12 11 9 7 6 6 7 6 7 10 13 13 15 19 23 25 27 27 27 27 27 28 29 30 30 30 30 30 30 29 29 29 29
32 30 28 24 20 18 15 13 12 10 10 8 6 7 8 7 8 10 11 11 11 14 19 23 25 27 27 27 27 28 28 30 30 30 29 29 30 30 30 30 30 30
31 29 26 23 19 16 14 13 11 9 8 7 7 9 10 10 12 12 9 8 9 15 20 23 26 28 27 27 28 28 28 29 29 29 29 29 29 30 29 29 30 30
29 26 23 21 19 16 13 12 9 7 7 8 10 12 13 13 14 12 7 6 9 16 21 23 26 28 27 27 28 28 28 28 28 28 28 29 30 30 30 30 30 30
Wind_Direction
207 208 208 207 208 212 210 203 200 199 199 198 200 204 207 210 211 212 228 251 267 275 293 314 327 333 333 334 332 328 324 318 313 309 303 303 309 315 316 315 317 318
209 211 211 210 210 211 208 206 204 203 202 201 202 203 202 205 210 219 238 252 258 266 284 306 318 322 319 319 321 322 321 318 314 311 308 305 305 309 314 316 315 315
208 210 209 209 209 206 206 207 207 205 203 201 201 203 201 204 211 220 233 243 250 261 278 294 301 304 309 311 312 312 310 310 310 308 308 309 308 309 311 313 313 313
207 210 211 210 209 208 207 205 205 204 202 201 201 203 203 204 210 216 225 235 243 258 272 279 281 286 299 307 310 310 306 304 302 301 302 303 305 307 308 311 310 309
208 210 213 213 212 210 207 203 203 201 200 201 201 202 203 204 209 215 220 227 238 255 264 267 273 281 292 300 306 308 307 305 302 300 301 301 301 303 304 307 306 304
208 211 213 213 212 210 208 205 204 202 201 202 202 201 205 208 212 215 220 230 243 252 257 264 275 283 291 298 304 307 306 306 304 301 301 301 302 302 302 302 303 304
206 209 211 212 212 211 211 208 206 206 205 206 206 205 208 212 215 220 230 245 250 253 262 270 276 283 293 299 301 303 300 297 296 296 296 298 300 300 301 303 304 305
205 207 209 211 211 210 211 208 206 207 208 209 209 210 213 218 225 235 248 255 255 259 266 269 275 287 294 295 296 298 298 294 294 297 297 296 297 298 299 300 301 300
203 205 207 208 208 208 207 206 205 206 208 211 211 213 220 226 234 248 258 258 258 259 261 265 278 290 293 296 301 305 306 304 303 303 300 298 298 298 298 297 296 295
202 203 205 205 205 206 204 203 204 205 208 211 213 217 224 231 241 252 254 252 253 255 261 275 289 299 307 313 315 316 314 313 312 310 305 302 301 299 298 295 293 292
201 202 205 204 204 204 203 203 203 205 208 210 214 220 226 234 241 244 245 245 247 253 267 285 300 310 317 318 319 319 318 317 316 313 309 306 303 299 296 293 291 290
200 202 203 204 204 204 203 204 205 206 209 213 218 224 227 231 234 235 236 238 245 261 279 293 304 312 315 315 315 317 319 319 318 315 311 306 302 297 293 290 288 288
200 202 203 204 205 205 204 206 206 208 213 218 222 225 226 228 231 233 234 242 264 285 296 301 306 312 313 314 315 316 318 318 317 317 313 306 301 297 294 291 287 286
201 201 203 204 204 204 205 204 205 209 214 219 223 226 229 234 237 239 250 272 293 299 300 300 303 306 309 312 315 315 315 313 312 311 309 305 301 297 294 292 290 288
203 202 202 202 203 202 201 201 204 207 211 217 227 231 235 241 245 256 281 299 303 299 296 295 298 303 308 312 313 313 312 311 309 307 306 304 301 297 293 290 288 287
201 200 200 200 200 199 198 199 201 204 212 222 230 236 242 249 260 283 301 304 299 292 291 295 302 307 310 311 311 312 311 310 307 305 304 303 300 298 295 292 289 286
199 199 199 198 199 199 197 197 199 206 218 227 234 242 250 259 279 299 301 296 294 296 304 312 316 316 316 314 314 314 311 308 305 303 302 300 298 296 294 292 291 288
192 196 196 195 197 198 195 194 201 211 220 231 239 244 255 274 292 297 293 297 313 324 327 326 323 320 319 318 317 315 312 308 304 301 300 298 295 293 292 291 290 289
180 185 188 192 195 193 191 192 201 215 226 232 235 240 262 279 282 283 308 333 336 334 330 325 322 321 321 320 318 315 313 308 303 300 298 295 293 291 290 289 288 288
176 180 183 187 187 183 185 194 206 221 226 222 223 239 255 255 253 301 327 331 329 329 327 325 325 323 322 321 319 317 313 308 303 299 296 293 291 289 287 286 286 285
175 176 176 176 176 177 186 197 207 213 209 206 216 230 232 235 270 300 314 324 331 334 334 332 330 327 325 323 320 318 314 310 305 301 296 293 290 288 286 285 283 282
170 168 169 168 168 176 187 194 198 198 197 201 207 212 224 248 271 292 316 330 336 340 339 336 333 330 327 324 321 318 314 311 308 303 298 293 290 288 286 283 281 280
164 162 163 163 166 177 185 188 189 189 190 193 198 214 232 248 270 301 320 328 335 341 340 338 336 335 330 325 321 318 314 312 309 304 299 293 290 288 285 282 280 278
162 161 162 163 170 179 181 179 178 180 186 194 213 233 240 256 280 296 309 321 333 340 340 338 336 335 332 324 319 317 314 312 310 305 300 295 292 289 285 282 280 278
161 163 164 167 172 175 174 170 170 177 191 211 240 249 253 265 273 279 294 314 328 338 342 340 334 331 329 323 318 315 313 312 310 306 301 297 294 291 287 284 281 279
161 165 168 169 168 165 162 161 166 182 209 235 250 252 254 260 261 266 285 313 329 340 344 341 335 330 326 322 317 314 312 310 308 304 301 299 296 293 290 286 283 280